Location: Mountain Grove
(34.0887°N, 86.6172°W)
Time: 21:56:00
(UTC+00:00)

Cosmos 1464 Rocket - Pass Details

Date: 14 July 2020
Orbit: 951 x 1002 km, 82.9° (Epoch: 08 August)

Event Time Altitude Azimuth Distance (km) Brightness Sun altitude
Exits shadow 08:58:16 23° 188° (S) 2,003 5.2 -18.9°
Maximum altitude 09:02:32 85° 275° (W) 1,010 4.0 -18.3°
Drops below altitude 10° 09:08:56 10° 5° (N) 2,772 7.0 -17.3°
Sets 09:11:28 0° 6° (N) 3,720 7.8 -16.9°
